Weather History for Sterling, IL

Change the Weather History Date:

Friday, August 2, 2013

  Actual Average Record
Temperature  
Mean Temperature 74 °F -  
Max Temperature 89 °F 80 °F 96 °F (2011)
Min Temperature 62 °F 60 °F 55 °F (1996)
Cooling Degree Days 10    
Growing Degree Days 24 (Base 50)    
Moisture  
Dew Point 63 °F    
Average Humidity 67    
Maximum Humidity 88    
Minimum Humidity 48    
Precipitation  
Precipitation 0.00 in - - ()
Sea Level Pressure  
Sea Level Pressure 29.90 in    
Wind  
Wind Speed 6 mph (WNW)    
Max Wind Speed 15 mph    
Max Gust Speed 18 mph    
Visibility 10 miles    
Events Thunderstorm    
Averages and records for this station are not official NWS values.
T = Trace of Precipitation, MM = Missing Value Source: NWS Daily Summary

Daily Weather History Graph

Daily Weather History Graph

Search for Another Location

Airport:

Trip Planner

Search our weather history database for the weather conditions in past years. The results will help you decide how hot, cold, wet, or windy it might be!

Date:

Astronomy

Aug. 02, 2013 Rise Set
Actual Time 5:54 AM CDT 8:15 PM CDT
Civil Twilight 5:22 AM CDT 8:46 PM CDT
Nautical Twilight 4:44 AM CDT 9:24 PM CDT
Astronomical Twilight 4:01 AM CDT 10:07 PM CDT
Moon 2:14 AM CDT (8/2) 5:13 PM CDT (8/2)
Length of Visible Light 15h 23m
Length of Day
14h 21m
Waning Crescent, 15% of the Moon is Illuminated
Aug 2
Waning Crescent
Aug 6
New
Aug 14
First Quarter
Aug 20
Full
Aug 28
Last Quarter

Hourly Weather History & Observations

Time (CDT) Temp. Heat Index Dew Point Humidity Pressure Visibility Wind Dir Wind Speed Gust Speed Precip Events Conditions
12:15 AM 66.2 °F - 59.0 °F 78% 29.93 in 10.0 mi South 3.5 mph - N/A   Overcast
12:55 AM 68.0 °F - 57.2 °F 68% 29.93 in 10.0 mi Calm Calm - N/A   Partly Cloudy
1:15 AM 64.4 °F - 57.2 °F 77% 29.92 in 10.0 mi East 4.6 mph - N/A   Clear
1:55 AM 62.6 °F - 57.2 °F 82% 29.91 in 10.0 mi SE 3.5 mph - N/A   Partly Cloudy
2:35 AM 64.4 °F - 60.8 °F 88% 29.90 in 10.0 mi Calm Calm - N/A   Mostly Cloudy
2:55 AM 64.4 °F - 60.8 °F 88% 29.89 in 10.0 mi Calm Calm - N/A   Overcast
3:15 AM 66.2 °F - 60.8 °F 83% 29.89 in 10.0 mi West 3.5 mph - N/A   Overcast
3:35 AM 66.2 °F - 60.8 °F 83% 29.89 in 10.0 mi Calm Calm - N/A   Overcast
3:55 AM 66.2 °F - 60.8 °F 83% 29.89 in 10.0 mi Calm Calm - N/A   Mostly Cloudy
4:15 AM 66.2 °F - 60.8 °F 83% 29.89 in 10.0 mi Calm Calm - N/A   Mostly Cloudy
4:35 AM 66.2 °F - 60.8 °F 83% 29.89 in 10.0 mi Calm Calm - N/A   Overcast
4:55 AM 66.2 °F - 60.8 °F 83% 29.89 in 10.0 mi Calm Calm - N/A   Overcast
5:15 AM 68.0 °F - 60.8 °F 78% 29.89 in 10.0 mi Calm Calm - N/A   Overcast
6:15 AM 68.0 °F - 62.6 °F 83% 29.89 in 10.0 mi West 6.9 mph - N/A   Mostly Cloudy
6:35 AM 69.8 °F - 62.6 °F 78% 29.89 in 10.0 mi WSW 8.1 mph - N/A   Mostly Cloudy
6:55 AM 69.8 °F - 62.6 °F 78% 29.89 in 10.0 mi WSW 8.1 mph - N/A Thunderstorm Mostly Cloudy
7:15 AM 69.8 °F - 62.6 °F 78% 29.90 in 10.0 mi West 4.6 mph - N/A   Partly Cloudy
7:35 AM 69.8 °F - 62.6 °F 78% 29.90 in 10.0 mi WSW 6.9 mph - N/A   Mostly Cloudy
7:55 AM 71.6 °F - 64.4 °F 78% 29.90 in 10.0 mi West 6.9 mph - N/A   Mostly Cloudy
8:15 AM 71.6 °F - 64.4 °F 78% 29.90 in 10.0 mi West 8.1 mph - N/A   Scattered Clouds
8:35 AM 73.4 °F - 64.4 °F 73% 29.90 in 10.0 mi West 8.1 mph - N/A   Clear
8:55 AM 75.2 °F - 66.2 °F 73% 29.89 in 10.0 mi West 6.9 mph - N/A   Clear
9:15 AM 78.8 °F - 66.2 °F 65% 29.89 in 10.0 mi West 11.5 mph - N/A   Clear
9:35 AM 78.8 °F - 66.2 °F 65% 29.89 in 10.0 mi West 11.5 mph - N/A   Clear
9:55 AM 80.6 °F 82.7 °F 66.2 °F 61% 29.89 in 10.0 mi West 10.4 mph - N/A   Clear
10:15 AM 80.6 °F 82.7 °F 66.2 °F 61% 29.89 in 10.0 mi WNW 12.7 mph - N/A   Clear
10:35 AM 82.4 °F 84.6 °F 66.2 °F 58% 29.89 in 10.0 mi WNW 10.4 mph - N/A   Clear
10:55 AM 82.4 °F 84.6 °F 66.2 °F 58% 29.89 in 10.0 mi WNW 12.7 mph 17.3 mph N/A   Clear
11:15 AM 82.4 °F 85.4 °F 68.0 °F 62% 29.88 in 10.0 mi WNW 8.1 mph - N/A   Clear
11:35 AM 84.2 °F 87.3 °F 68.0 °F 58% 29.89 in 10.0 mi West 10.4 mph - N/A   Clear
11:55 AM 84.2 °F 87.3 °F 68.0 °F 58% 29.89 in 10.0 mi WNW 10.4 mph - N/A   Partly Cloudy
12:15 PM 84.2 °F 87.3 °F 68.0 °F 58% 29.89 in 10.0 mi West 6.9 mph - N/A   Partly Cloudy
12:35 PM 86.0 °F 89.4 °F 68.0 °F 55% 29.90 in 10.0 mi West 10.4 mph - N/A   Scattered Clouds
1:15 PM 87.8 °F 90.4 °F 66.2 °F 49% 29.89 in 10.0 mi WNW 11.5 mph 17.3 mph N/A   Partly Cloudy
1:35 PM 87.8 °F 90.4 °F 66.2 °F 49% 29.89 in 10.0 mi West 9.2 mph - N/A   Clear
1:55 PM 84.2 °F 86.6 °F 66.2 °F 55% 29.89 in 10.0 mi WNW 8.1 mph 16.1 mph N/A   Mostly Cloudy
2:15 PM 87.8 °F 90.4 °F 66.2 °F 49% 29.89 in 10.0 mi NW 12.7 mph - N/A   Mostly Cloudy
2:35 PM 86.0 °F 88.2 °F 66.2 °F 51% 29.89 in 10.0 mi WNW 15.0 mph - N/A   Scattered Clouds
2:55 PM 87.8 °F 90.4 °F 66.2 °F 49% 29.89 in 10.0 mi West 12.7 mph 17.3 mph N/A   Scattered Clouds
3:15 PM 87.8 °F 90.4 °F 66.2 °F 49% 29.88 in 10.0 mi NW 13.8 mph 17.3 mph N/A   Partly Cloudy
3:35 PM 87.8 °F 90.4 °F 66.2 °F 49% 29.88 in 10.0 mi West 13.8 mph - N/A   Partly Cloudy
3:55 PM 86.0 °F 88.2 °F 66.2 °F 51% 29.88 in 10.0 mi NW 8.1 mph - N/A   Partly Cloudy
4:15 PM 87.8 °F 90.4 °F 66.2 °F 49% 29.87 in 10.0 mi WNW 8.1 mph - N/A   Scattered Clouds
4:35 PM 86.0 °F 88.2 °F 66.2 °F 51% 29.87 in 10.0 mi NNW 8.1 mph - N/A   Partly Cloudy
4:55 PM 86.0 °F 87.3 °F 64.4 °F 48% 29.87 in 10.0 mi WNW 8.1 mph - N/A   Clear
5:15 PM 84.2 °F 86.6 °F 66.2 °F 55% 29.87 in 10.0 mi NW 11.5 mph - N/A   Clear
5:35 PM 82.4 °F 83.9 °F 64.4 °F 54% 29.88 in 10.0 mi NNW 9.2 mph - N/A   Partly Cloudy
5:55 PM 82.4 °F 83.9 °F 64.4 °F 54% 29.89 in 10.0 mi NNW 11.5 mph - N/A   Mostly Cloudy
6:15 PM 80.6 °F 82.7 °F 66.2 °F 61% 29.88 in 10.0 mi NNW 11.5 mph - N/A   Mostly Cloudy
6:35 PM 80.6 °F 82.3 °F 64.4 °F 58% 29.89 in 10.0 mi NNW 6.9 mph - N/A   Partly Cloudy
6:55 PM 78.8 °F - 64.4 °F 61% 29.90 in 10.0 mi North 8.1 mph - N/A   Partly Cloudy
7:15 PM 78.8 °F - 64.4 °F 61% 29.90 in 10.0 mi North 11.5 mph - N/A   Mostly Cloudy
7:35 PM 78.8 °F - 62.6 °F 57% 29.91 in 10.0 mi North 9.2 mph 18.4 mph N/A   Scattered Clouds
7:55 PM 77.0 °F - 60.8 °F 57% 29.92 in 10.0 mi North 10.4 mph 18.4 mph N/A   Mostly Cloudy
8:15 PM 75.2 °F - 60.8 °F 61% 29.93 in 10.0 mi North 15.0 mph - N/A   Mostly Cloudy
8:35 PM 73.4 °F - 59.0 °F 61% 29.94 in 10.0 mi North 12.7 mph - N/A   Mostly Cloudy
8:55 PM 73.4 °F - 59.0 °F 61% 29.94 in 10.0 mi North 11.5 mph - N/A   Mostly Cloudy
9:15 PM 71.6 °F - 59.0 °F 64% 29.94 in 10.0 mi North 8.1 mph - N/A   Mostly Cloudy
9:35 PM 69.8 °F - 60.8 °F 73% 29.95 in 10.0 mi North 6.9 mph - N/A   Mostly Cloudy
9:55 PM 69.8 °F - 60.8 °F 73% 29.95 in 10.0 mi Calm Calm - N/A   Scattered Clouds
10:15 PM 69.8 °F - 62.6 °F 78% 29.95 in 10.0 mi NNW 3.5 mph - N/A   Mostly Cloudy
10:35 PM 69.8 °F - 62.6 °F 78% 29.96 in 10.0 mi Calm Calm - N/A   Overcast
10:55 PM 69.8 °F - 62.6 °F 78% 29.97 in 10.0 mi Calm Calm - N/A   Overcast
11:15 PM 69.8 °F - 62.6 °F 78% 29.96 in 10.0 mi Calm Calm - N/A   Mostly Cloudy
11:35 PM 68.0 °F - 62.6 °F 83% 29.97 in 10.0 mi Calm Calm - N/A   Mostly Cloudy
11:55 PM 66.2 °F - 60.8 °F 83% 29.98 in 10.0 mi Calm Calm - N/A   Mostly Cloudy